www.pogodaiklimat.ru
Время
(UTC), дата
06 22.03
09 22.03
12 22.03
15 22.03
18 22.03
21 22.03
00 23.03
03 23.03
06 23.03
09 23.03
12 23.03
15 23.03
18 23.03
21 23.03
00 24.03
03 24.03
06 24.03
09 24.03
12 24.03
15 24.03
18 24.03
21 24.03
00 25.03
03 25.03
06 25.03
09 25.03
12 25.03
15 25.03
18 25.03
21 25.03
00 26.03
03 26.03
06 26.03
09 26.03
12 26.03
15 26.03
18 26.03
21 26.03
00 27.03
03 27.03
06 27.03
09 27.03
12 27.03
15 27.03
18 27.03
21 27.03
00 28.03
03 28.03
06 28.03
09 28.03
12 28.03
15 28.03
18 28.03
21 28.03
00 29.03
03 29.03
Ветер
(напр.,м/с)
Видим. Явления Облачность Т
(С)
Тd
(С)
f
(%)
Тe
(С)
Тes
(С)
Комфортность P
(гПа)
Po
(гПа)
Тmin
(С)
Tmax
(С)
R
(мм)
R24
(мм)
S
(см)
штиль 0 50 км 3/0
[Ci sp]
+18.6 +9.5 55 +19 +35 опасность
простуды
1014.1 924.7 +4.3
В 3 50 км 3/0
[Ci sp]
+23.0 +8.5 39 +24 +34 комфорт 1011.0 923.1
штиль 0 50 км 3/0
[Ci sp]
+21.7 +8.9 44 +23 +26 комфорт 1010.1 921.8
штиль 0 н/о 3/0
[Ci ing]
+15.1 +7.3 60 +15 +15 тепло 1011.2 921.0 +24.3
штиль 0 н/о 5/0 1000 м
[Ac cast Ci sp]
+13.0 +6.8 66 +13 +13 тепло 1010.7 919.8 +24.3
СЗ 2 н/о 10/10 1000 м
[Cb cap]
+15.2 +6.8 57 +15 +15 тепло 1008.8 918.8
штиль 0 50 км ?/? +12.1 +7.1 71 +12 +12 тепло 1007.9 917.1
З 2 10 км в посл. час ливневой дождь 10/10 1000 м
[Cb cap]
+13.6 +6.5 62 +13 +13 тепло 1007.0 916.6 +11.1 0.0
С 7 20 км {ливн. осадки} 8/4 1000 м
[Sc Ac cast Ci sp]
+20.0 +9.0 49 +21 +22 комфорт 1003.3 915.3 +11.1
С 3 20 км 8/4 1000 м
[Sc Ac cast Ci ing]
+24.1 +8.9 38 +25 +29 комфорт 1000.5 913.8
В 3 10 км 10/10 1000 м
[Cb cap]
+22.0 +9.7 46 +24 +24 комфорт 999.1 912.0
З 4 н/о слаб. ливневой дождь 10/10 1000 м
[Cb cap]
+17.8 +14.7 82 +18 +18 тепло 1002.5 914.1 +25.4 1
С 3 н/о слаб. ливневой дождь 10/10 1000 м
[Cb cap]
+12.9 +11.8 93 +11 +11 тепло 1006.2 915.9 +25.4
СВ 4 н/о {ливн. осадки} 8/5 1000 м
[Sc Ac cast Ci ing]
+13.4 +10.3 81 +12 +12 тепло 1003.8 913.8
З 3 н/о 8/4 1000 м
[Sc Ac cast Ci ing]
+11.1 +10.4 95 +9 +9 тепло 1003.1 912.5
штиль 0 50 км 8/4 1000 м
[Sc Ac trans Ci ing]
+13.0 +10.7 86 +13 +14 тепло 1002.1 912.2 +10.0 5
З 8 10 км слаб. ливневой дождь 10/10 1000 м
[Cb cap]
+16.8 +11.1 69 +15 +15 тепло 1002.5 913.6 +10.0
З 6 10 км слаб. ливневой дождь 10/10 1000 м
[Cb cap]
+15.8 +12.0 78 +14 +14 по сезону 1003.5 914.3
штиль 0 10 км {ливн. осадки} 10/10 1000 м
[Cb cap]
+16.5 +11.1 70 +16 +16 тепло 1002.5 913.5
З 3 н/о слаб. ливневой дождь 10/10 1000 м
[Cb cap]
+14.5 +11.9 84 +14 +14 тепло 1004.3 914.6 +17.5 0.5
З 4 н/о слаб. ливневой дождь 10/10 1000 м
[Cb cap]
+12.6 +11.9 95 +11 +11 тепло 1007.3 915.8 +17.5
СЗ 3 н/о слаб. ливневой дождь 10/10 1000 м
[Cb cap]
+11.8 +11.8 100 +10 +10 тепло 1009.8 918.8
З 2 н/о слаб. ливневой дождь 10/10 1000 м
[Cb cap]
+9.9 +9.9 100 +8 +8 по сезону 1011.5 919.7
З 3 10 км слаб. ливневой дождь 10/10 1000 м
[Cb cap]
+9.0 +9.0 100 +6 +6 прохладно 1013.3 921.1 +8.0 6
СЗ 2 10 км ливневой дождь 10/10 1000 м
[Cb cap]
+10.7 +10.3 97 +9 +9 прохладно 1014.1 922.4 +8.0
штиль 0 10 км {ливн. осадки} 10/10 1000 м
[Cb cap]
+13.1 +11.4 89 +13 +13 по сезону 1012.2 921.4
ЮЗ 3 50 км 8/5 1000 м
[Cb cap Ac trans Ci ing]
+15.4 +10.5 73 +15 +16 по сезону 1009.9 920.0
СЗ 4 н/о 8/8 1000 м
[Cb cap Ac cast]
+11.3 +10.5 95 +9 +9 по сезону 1013.3 921.8 +16.3 9
З 3 н/о 10/10 1000 м
[Cb cap]
+10.6 +10.4 99 +8 +8 по сезону 1014.8 923.0 +16.3
З 5 н/о 10/10 1000 м
[Cb cap]
+10.0 +9.8 99 +7 +7 по сезону 1015.3 923.2
ЮЗ 2 н/о 10/10 1000 м
[Cb cap]
+9.1 +8.9 99 +7 +7 по сезону 1015.5 923.1
штиль 0 10 км дымка 10/10 1000 м
[Sc]
+10.7 +9.7 94 +10 +10 по сезону 1015.6 923.7 +7.9
штиль 0 10 км дымка 8/4 1000 м
[Sc Ac cast Ci ing]
+15.2 +9.4 68 +15 +22 тепло 1013.5 922.8 +7.9
штиль 0 50 км 8/4 1000 м
[Sc Ac cast Ci ing]
+16.4 +7.8 57 +16 +23 тепло 1011.8 921.9
штиль 0 50 км 8/5 1000 м
[Cb calv Ac cast Ci ing]
+15.9 +8.0 59 +16 +17 тепло 1011.4 921.4
З 4 н/о 5/3 1000 м
[Cb cap Ci ing]
+13.1 +7.8 70 +11 +11 по сезону 1014.4 923.3 +17.2
З 4 н/о 8/4 1000 м
[Cb cap Ac trans Ci ing]
+11.4 +8.4 82 +9 +9 по сезону 1016.7 924.9 +17.2
З 3 н/о 10/10 1000 м
[Cb cap]
+10.6 +8.8 89 +8 +8 по сезону 1016.8 924.7
СЗ 2 н/о слаб. ливневой дождь 10/10 1000 м
[Cb cap]
+9.8 +9.5 98 +8 +8 тепло 1016.2 924.0
З 4 10 км слаб. ливневой дождь 10/10 1000 м
[Cb cap]
+8.8 +8.8 100 +5 +5 по сезону 1017.7 925.0 +7.7 6
СЗ 2 10 км слаб. ливневой дождь 10/10 1000 м
[Cb cap]
+10.0 +9.5 97 +8 +8 по сезону 1018.1 925.7 +7.7
ЮВ 3 10 км слаб. ливневой дождь 10/10 1000 м
[Cb cap]
+12.8 +10.5 86 +11 +11 по сезону 1016.6 925.3
штиль 0 20 км {ливн. осадки} 8/4 1000 м
[Sc Ac cast Ci ing]
+14.4 +9.5 72 +14 +15 тепло 1014.3 923.6
З 3 н/о 8/8 1000 м
[Cb cap Ac trans]
+10.3 +8.2 87 +8 +8 по сезону 1017.0 924.8 +15.3 1
В 2 н/о 10/8 1000 м
[Cb cap]
+9.5 +8.5 93 +8 +8 по сезону 1017.8 925.3 +15.3
В 2 н/о 10/10 1000 м
[Cb cap]
+10.4 +9.0 91 +9 +9 тепло 1017.1 925.0
В 2 н/о 10/10 1000 м
[Cb cap]
+9.4 +9.0 97 +8 +8 тепло 1017.1 924.6
штиль 0 10 км в посл. час ливневой дождь 10/10 1000 м
[Cb cap]
+9.8 +9.8 100 +9 +9 тепло 1018.4 926.0 +8.2 0.0
З 2 10 км слаб. ливневой дождь 10/10 1000 м
[Sc]
+13.3 +7.8 69 +13 +13 тепло 1017.9 926.5 +8.2
Ю 3 20 км {ливн. осадки} 8/4 1000 м
[Sc Ac trans Ci ing]
+15.2 +7.6 60 +15 +19 тепло 1015.4 924.8
С 2 50 км 4/0 1000 м
[Ac cast Ci ing]
+16.8 +6.7 51 +17 +19 тепло 1013.0 923.1
штиль 0 н/о 3/0
[Ci ing]
+10.0 +6.8 80 +9 +9 по сезону 1015.9 923.7 +17.7 0.5
штиль 0 н/о ясно +7.8 +6.7 93 +7 +7 по сезону 1016.9 923.9 +17.7
штиль 0 н/о ясно +6.6 +6.1 97 +5 +5 по сезону 1017.2 923.7
В 2 н/о ясно +5.0 +5.0 100 +2 +2 по сезону 1016.7 922.8
штиль 0 50 км ясно +9.3 +7.8 90 +8 +12 тепло 1015.1 922.7 +3.7
Местоположение метеостанции Душанбе (Таджикистан): широта 38.55 долгота 68.78 высота над уровнем моря 800 м.
В архиве по умолчанию представлена погода в Душанбе за последнюю неделю. Архивные данные за месяц целиком и за предыдущие месяцы, начиная с января 2011 года, Вы можете получить, выбрав интересующий диапазон дат из раскрывающегося списка и нажав кнопку "Найти!".
*Определитесь, кто Вы:
Внимание! Время в таблицах - всемирное. Для получения местного времени необходимо прибавить поправку, которая равна 5 ч.
Смотрите также архив погоды в соседних городах и на ближайших метеорологических станциях:
Партнеры нашего сайта:      
Пояснения к столбцам:
  • Ветер - указаны скорость ветра в м/с - средняя за 10 мин, порывы в срок и между сроками (в фигурных скобках) и направление, откуда дует ветер: С - северный,
  • СВ - северо-восточный, В - восточный, ЮВ - юго-восточный, Ю - южный, ЮЗ - юго-западный, З - западный, СЗ - северо-западный.
  • Видимость - горизонтальная дальность видимости в метрах или километрах. При видимости от 1 до 10 км при отсутствии осадков обычно наблюдается дымка, при ухудшении видимости до 1 км и менее - туман. В сухую погоду видимость может ухудшаться дымом, пылью или мглою.
  • Явления - указаны атмосферные явления, наблюдавшиеся в срок или в последний час перед сроком; фигурными скобками обозначены явления, наблюдавшиеся между сроками (за 1-3 часа до срока); квадратными скобками обозначены град или гололедные отложения с указанием их диаметра в мм.
  • Облачность - указаны через наклонную черту общая и нижняя облачность в баллах и высота нижней границы облаков в метрах; квадратными скобками обозначены формы облаков: Ci - перистые, Cs - перисто-слоистые, Cc - перисто-кучевые, Ac - высококучевые, As - высокослоистые, Sc - слоисто-кучевые, Ns - слоисто-дождевые, Cu - кучевые, Cb - кучево-дождевые. Подробнее классификацию облаков см. в Атласе облаков (PDF).
  • T - Температура воздуха - температура, измеренная на высоте 2 м над землей.
  • Td - Температура точки росы - температура, при понижении до которой содержащийся в воздухе водяной пар достигнет насыщения.
  • f - Относительная влажность воздуха - влажноcть воздуха, измеренная на высоте 2 м над землей.
  • Te - Эффективная температура - температура, которую ощущает одетый по сезону человек в тени. Характеристика душности погоды. При расчете учитывается влияние влажности воздуха и скорости ветра на теплоощущения человека.
  • Tes - Эффективная температура на солнце - температура, которую ощущает человек, с поправкой на солнечный нагрев. Характеристика знойности погоды. Зависит от высоты солнца над горизонтом, облачности и скорости ветра. Ночью, в пасмурную погоду, а также при ветре 12 м/с и более поправка равна нулю.
  • P - Атмосферное давление - приведенное к уровню моря атмосферное давление.
  • Po - Атмосферное давление - измеренное на уровне метеостанции атмосферное давление.
  • Tmin - Минимальная температура - минимум температуры воздуха на высоте 2 м над землей.
  • Tmax - Максимальная температура - максимум температуры воздуха на высоте 2 м над землей.
  • R - Количество осадков - Количество выпавших осадков за период времени, мм. При наведении курсора мыши на число - период времени, за который выпало указанное количество осадков.
  • R24 - Количество осадков - Количество выпавших осадков за 24 часа, мм.
  • S - Снежный покров - Высота снежного покрова, см. При наведении курсора мыши на число - состояние снежного покрова и степень покрытия местности в баллах.